[[{"header":{"parameterUnit":"m.s-1","parameterCategory":1,"la1":30.2991,"la2":30.254,"lo1":-89.0895,"lo2":-89.0444,"dy":0.0017,"dx":0.0017,"nx":28,"ny":28,"refTime":"2025-11-05T09:00:00:Z","depth":0,"parameterNumber":2,"parameterNumberName":"U-component_of_WINDS"},"data":[0,0,0,0,0,0,0,0,0,0,0,0,0,0,0,0,0,0,0,0,0,0,0,0,0,0,0,0,0,0,0,0,0,0,0,0,0,0,0,0,0,0,0,0,0,0,0,0,0,0,0,0,0,0,0,0,0,0,-2.3941,-2.3942,0,-2.3979,-2.3979,-2.398,-2.3886,-2.3883,-2.388,-2.3877,-2.3918,-2.3922,-2.3926,0,0,0,0,0,0,0,0,0,0,0,0,0,-2.3791,-2.3794,-2.3941,-2.3942,-2.3942,-2.3979,-2.3979,-2.398,-2.3886,-2.3883,-2.3879,-2.3876,-2.3917,-2.3921,-2.3926,0,0,0,0,0,0,0,0,0,0,0,0,0,-2.3845,-2.3795,-2.3941,-2.39,-2.3897,-2.3979,-2.3979,-2.398,-2.3887,-2.3882,-2.3878,-2.3874,-2.3915,-2.3921,-2.3927,-2.4052,0,0,-2.3944,-2.3947,0,0,0,0,0,0,0,0,-2.3842,-2.3851,-2.3906,-2.3903,-2.3899,-2.3923,-2.3941,-2.4004,-2.3888,-2.3891,-2.3877,-2.3872,-2.3924,-2.3928,-2.3945,-2.4054,-2.4055,-2.3945,-2.3948,-2.3951,-2.3953,0,0,0,0,0,0,0,-2.3839,-2.3849,-2.3956,-2.3906,-2.3903,-2.388,-2.3883,-2.3953,-2.3932,-2.389,-2.3883,-2.3889,-2.3921,-2.394,-2.3946,-2.4056,-2.3945,-2.395,-2.3954,-2.3956,-2.427,-2.4274,0,0,0,0,0,0,-2.384,-2.3846,-2.3955,-2.3957,-2.3859,-2.3887,-2.389,-2.392,-2.3931,-2.3928,-2.3893,-2.3884,-2.3932,-2.3939,-2.3947,-2.4095,-2.3951,-2.3956,-2.396,-2.4265,-2.4271,-2.4276,0,0,0,0,0,0,-2.3837,-2.385,-2.3954,-2.39,-2.3911,-2.3894,-2.3929,-2.3923,-2.3942,-2.3933,-2.3929,-2.3916,-2.3929,-2.3939,-2.4026,-2.4095,-2.3959,-2.3964,-2.4259,-2.4267,-2.4273,-2.4391,0,0,0,0,0,0,-2.3833,-2.385,-2.3897,-2.3902,-2.3915,-2.4032,-2.3933,-2.3927,-2.3952,-2.3941,-2.3953,-2.3951,-2.3926,-2.4018,-2.4032,-2.41,-2.3969,-2.4253,-2.4262,-2.4271,-2.4381,-2.4402,-2.4419,0,0,0,0,0,-2.3828,-2.3929,-2.39,-2.3913,-2.3973,-2.4036,-2.4044,-2.4012,-2.3958,-2.4005,-2.3999,-2.3951,-2.4085,-2.4028,-2.4043,-2.4114,-2.4249,-2.426,-2.427,-2.4373,-2.4398,-2.4419,0,0,0,0,0,0,-2.3933,-2.3929,-2.3896,-2.4001,-2.402,-2.402,-2.4079,-2.404,-2.4075,-2.4064,-2.4024,-2.4027,-2.4123,-2.4127,-2.4064,-2.4236,-2.4157,-2.4172,-2.423,-2.4254,-2.4272,-2.427,-2.3974,0,0,0,0,0,-2.3968,-2.402,-2.4013,-2.4107,-2.4118,-2.4097,-2.4124,-2.4098,-2.4116,-2.4123,-2.4124,-2.4144,-2.419,-2.4222,-2.4264,-2.4381,-2.4383,-2.4437,-2.4456,-2.4471,-2.4485,-2.4548,-2.4572,-2.4312,-2.4312,-2.4312,0,0,-2.4042,-2.4046,-2.4081,-2.4128,-2.4139,-2.4194,-2.4104,-2.4166,-2.4207,-2.4133,-2.4216,-2.4217,-2.4237,-2.434,-2.4385,-2.4346,-2.4557,-2.4485,-2.4498,-2.4503,-2.4562,-2.4587,-2.4609,-2.4319,-2.4318,-2.4317,0,0,-2.4205,-2.4213,-2.4292,-2.4305,-2.4323,-2.4308,-2.4327,-2.4334,-2.4332,-2.4414,-2.436,-2.4408,-2.4489,-2.4505,-2.4524,-2.4693,-2.4651,-2.4708,-2.4808,-2.487,-2.4891,-2.4909,-2.4971,-2.4993,-2.4721,-2.4722,-2.4722,0,-2.4295,-2.4375,-2.4338,-2.4404,-2.4426,-2.4361,-2.4441,-2.4456,-2.4487,-2.4505,-2.446,-2.456,-2.4569,-2.4675,-2.4717,-2.4734,-2.4756,-2.4707,-2.489,-2.4908,-2.4925,-2.4983,-2.5006,-2.4729,-2.4728,-2.4727,-2.4726,0,-2.4485,-2.4542,-2.4603,-2.4635,-2.4664,-2.4737,-2.4712,-2.4746,-2.4718,-2.4709,-2.4794,-2.4802,-2.4845,-2.4868,-2.4841,-2.4971,-2.4947,-2.4897,-2.4818,-2.4957,-2.5011,-2.5033,-2.4739,-2.4736,-2.4734,-2.4732,0,0,-2.4717,-2.4726,-2.4749,-2.4763,-2.4778,-2.4821,-2.4891,-2.4933,-2.4964,-2.4987,-2.5046,-2.5116,-2.507,-2.5092,-2.5066,-2.512,-2.5256,-2.5064,-2.5064,-2.5101,-2.5401,-2.544,-2.5466,-2.5227,-2.5231,-2.5234,-2.54,0,-2.4878,-2.4998,-2.4967,-2.5087,-2.5139,-2.5077,-2.5139,-2.5155,-2.5148,-2.5192,-2.5184,-2.5235,-2.517,-2.5183,-2.5234,-2.5229,-2.5316,-2.5216,-2.5283,-2.5286,-2.5281,-2.5494,-2.5535,-2.5692,-2.5421,-2.5425,-2.5427,0,-2.5083,-2.5115,-2.524,-2.5246,-2.5267,-2.5323,-2.5358,-2.5401,-2.5418,-2.5409,-2.5434,-2.5397,-2.5468,-2.5387,-2.5484,-2.5417,-2.5442,-2.5444,-2.5449,-2.5456,-2.5366,-2.5508,-2.5741,-2.5765,-2.546,-2.5457,-2.5455,0,-2.5242,-2.5315,-2.5399,-2.5412,-2.5422,-2.5463,-2.5469,-2.5482,-2.5509,-2.554,-2.5558,-2.5597,-2.5619,-2.5651,-2.5627,-2.557,-2.5729,-2.5645,-2.5725,-2.5726,-2.5762,-2.5761,-2.6004,-2.5776,-2.5776,-2.5775,-2.5775,0,-2.5427,-2.5506,-2.547,-2.5523,-2.561,-2.5573,-2.5661,-2.566,-2.5672,-2.5724,-2.5672,-2.5722,-2.5686,-2.5733,-2.5714,-2.5799,-2.5809,-2.5804,-2.5799,-2.581,-2.5811,-2.5827,-2.5816,-2.5782,-2.578,-2.5779,-2.5778,0,-2.5619,-2.5598,-2.5686,-2.5687,-2.569,-2.5754,-2.5756,-2.5805,-2.5794,-2.586,-2.5873,-2.5857,-2.5909,-2.5888,-2.5943,-2.5931,-2.6039,-2.6019,-2.6034,-2.6029,-2.611,-2.6103,-2.6374,-2.6408,-2.6157,-2.6159,-2.6161,0,-2.5739,-2.5798,-2.5806,-2.5837,-2.5846,-2.5896,-2.5923,-2.5889,-2.592,-2.5945,-2.5991,-2.6039,-2.6076,-2.6163,-2.6157,-2.6199,-2.618,-2.6272,-2.6187,-2.6196,-2.6184,-2.6181,-2.6188,-2.629,-2.6293,-2.6295,-2.6297,0,-2.5955,-2.5942,-2.5982,-2.602,-2.6054,-2.6082,-2.6106,-2.6134,-2.6101,-2.6138,-2.6191,-2.622,-2.6277,-2.6326,-2.6363,-2.637,-2.633,-2.6324,-2.6345,-2.6358,-2.6364,-2.6363,-2.6082,-2.6318,-2.6316,-2.6314,-2.6313,-2.6312,-2.6116,-2.6166,-2.618,-2.6227,-2.6241,-2.6265,-2.6311,-2.6305,-2.6349,-2.6392,-2.6369,-2.6431,-2.6448,-2.6494,-2.6507,-2.6556,-2.652,-2.655,-2.6558,-2.6566,-2.6577,-2.6355,-2.6562,-2.6562,-2.6561,-2.656,-2.656,0,-2.633,-2.6336,-2.638,-2.6414,-2.6452,-2.6408,-2.6432,-2.6467,-2.6522,-2.654,-2.6578,-2.6639,-2.6686,-2.6683,-2.6727,-2.6767,-2.6749,-2.678,-2.6777,-2.678,-2.6606,-2.6584,-2.6793,-2.6793,-2.6793,-2.6793,-2.6793,-2.6793,-2.6447,-2.653,-2.6518,-2.6609,-2.6613,-2.6673,-2.6691,-2.6713,-2.6727,-2.6798,-2.6837,-2.6834,-2.6844,-2.6888,-2.693,-2.6928,-2.6947,-2.6985,-2.6977,-2.6815,-2.6792,-2.677,-2.6749,-2.6989,-2.699,-2.7146,-2.7148,-2.7149]},{"header":{"parameterUnit":"m.s-1","parameterCategory":1,"la1":30.2991,"la2":30.254,"lo1":-89.0895,"lo2":-89.0444,"dy":0.0017,"dx":0.0017,"nx":28,"ny":28,"refTime":"2025-11-05T09:00:00:Z","depth":0,"parameterNumber":3,"parameterNumberName":"V-component_of_WINDS"},"data":[0,0,0,0,0,0,0,0,0,0,0,0,0,0,0,0,0,0,0,0,0,0,0,0,0,0,0,0,0,0,0,0,0,0,0,0,0,0,0,0,0,0,0,0,0,0,0,0,0,0,0,0,0,0,0,0,0,0,-1.7417,-1.7417,0,-1.7407,-1.7407,-1.7407,-1.7364,-1.7363,-1.7362,-1.7361,-1.7351,-1.7352,-1.7353,0,0,0,0,0,0,0,0,0,0,0,0,0,-1.7398,-1.7399,-1.7417,-1.7417,-1.7417,-1.7407,-1.7407,-1.7407,-1.7364,-1.7363,-1.7362,-1.7361,-1.7351,-1.7352,-1.7353,0,0,0,0,0,0,0,0,0,0,0,0,0,-1.7399,-1.7399,-1.7417,-1.7394,-1.7392,-1.7407,-1.7407,-1.7407,-1.7365,-1.7363,-1.7362,-1.736,-1.7351,-1.7352,-1.7353,-1.7389,0,0,-1.7356,-1.7356,0,0,0,0,0,0,0,0,-1.7399,-1.74,-1.7398,-1.7396,-1.7393,-1.7385,-1.7397,-1.7401,-1.7365,-1.7375,-1.7361,-1.7359,-1.7364,-1.7364,-1.7365,-1.7388,-1.7388,-1.7356,-1.7357,-1.7357,-1.7357,0,0,0,0,0,0,0,-1.7399,-1.74,-1.7413,-1.7398,-1.7395,-1.7384,-1.7383,-1.7397,-1.7378,-1.7374,-1.7371,-1.737,-1.7362,-1.7364,-1.7365,-1.7388,-1.7356,-1.7357,-1.7358,-1.7358,-1.7439,-1.7441,0,0,0,0,0,0,-1.7402,-1.74,-1.7413,-1.7413,-1.7393,-1.7386,-1.7384,-1.7389,-1.7378,-1.7374,-1.7372,-1.7368,-1.7363,-1.7364,-1.7364,-1.7405,-1.7357,-1.7358,-1.7359,-1.7438,-1.7439,-1.7441,0,0,0,0,0,0,-1.7402,-1.7404,-1.7414,-1.7406,-1.7406,-1.7388,-1.7394,-1.739,-1.7392,-1.7376,-1.7372,-1.7377,-1.7362,-1.7363,-1.7383,-1.7404,-1.7358,-1.7359,-1.7436,-1.7438,-1.744,-1.7487,0,0,0,0,0,0,-1.7402,-1.7404,-1.7418,-1.7406,-1.7407,-1.7433,-1.7395,-1.7391,-1.7394,-1.7389,-1.738,-1.7377,-1.7361,-1.7382,-1.7384,-1.7404,-1.736,-1.7434,-1.7437,-1.744,-1.7484,-1.7491,-1.7497,0,0,0,0,0,-1.7401,-1.7432,-1.7419,-1.7421,-1.7423,-1.7434,-1.7434,-1.7415,-1.7395,-1.7409,-1.7398,-1.7377,-1.7401,-1.7384,-1.7386,-1.7407,-1.7432,-1.7436,-1.7439,-1.7481,-1.7489,-1.7497,0,0,0,0,0,0,-1.7447,-1.743,-1.7415,-1.7443,-1.744,-1.7427,-1.7443,-1.7425,-1.7428,-1.7424,-1.74,-1.7398,-1.7422,-1.7417,-1.7398,-1.7441,-1.7413,-1.7417,-1.7444,-1.7452,-1.7458,-1.7459,-1.7361,0,0,0,0,0,-1.746,-1.747,-1.7455,-1.748,-1.748,-1.7462,-1.7466,-1.7451,-1.7448,-1.7446,-1.7437,-1.7435,-1.7441,-1.7446,-1.7452,-1.7482,-1.748,-1.7498,-1.7505,-1.751,-1.7514,-1.7529,-1.7537,-1.7453,-1.7453,-1.7453,0,0,-1.7487,-1.7479,-1.7487,-1.7489,-1.7486,-1.7496,-1.7461,-1.7474,-1.7482,-1.7448,-1.7466,-1.746,-1.7455,-1.7481,-1.7491,-1.7477,-1.7537,-1.7515,-1.7519,-1.752,-1.7534,-1.7542,-1.7549,-1.7455,-1.7455,-1.7454,0,0,-1.7543,-1.7538,-1.7558,-1.7555,-1.7549,-1.7537,-1.7542,-1.7531,-1.7525,-1.7543,-1.7518,-1.7527,-1.7539,-1.7536,-1.7537,-1.759,-1.757,-1.7592,-1.7627,-1.7642,-1.7649,-1.7654,-1.7673,-1.768,-1.7596,-1.7596,-1.7596,0,-1.7577,-1.7593,-1.7571,-1.7586,-1.7587,-1.7556,-1.7577,-1.7575,-1.7571,-1.7573,-1.7557,-1.7571,-1.7566,-1.759,-1.7603,-1.7604,-1.7609,-1.7593,-1.7649,-1.7655,-1.766,-1.7677,-1.7685,-1.7599,-1.7599,-1.7598,-1.7598,0,-1.7635,-1.7646,-1.7663,-1.766,-1.7664,-1.7681,-1.7662,-1.7668,-1.7653,-1.7642,-1.766,-1.7653,-1.7656,-1.766,-1.7646,-1.7682,-1.7673,-1.7654,-1.7625,-1.7671,-1.7687,-1.7694,-1.7603,-1.7602,-1.7601,-1.76,0,0,-1.772,-1.7704,-1.771,-1.7708,-1.7699,-1.7707,-1.7723,-1.7725,-1.7731,-1.7729,-1.7742,-1.7752,-1.7734,-1.7734,-1.7719,-1.7732,-1.7774,-1.7711,-1.771,-1.7723,-1.7813,-1.7827,-1.7835,-1.7761,-1.7762,-1.7763,-1.7813,0,-1.7772,-1.7798,-1.7778,-1.7807,-1.7817,-1.7787,-1.7801,-1.7797,-1.7787,-1.7794,-1.7783,-1.779,-1.7766,-1.7766,-1.7778,-1.7767,-1.7792,-1.7763,-1.7772,-1.7773,-1.7774,-1.7844,-1.7859,-1.7907,-1.7819,-1.782,-1.7821,0,-1.7837,-1.7837,-1.7867,-1.7855,-1.7859,-1.7871,-1.7871,-1.7878,-1.7873,-1.7864,-1.7865,-1.7846,-1.786,-1.7832,-1.7851,-1.7831,-1.7834,-1.7829,-1.783,-1.783,-1.78,-1.7845,-1.7921,-1.7929,-1.7831,-1.783,-1.7829,0,-1.7894,-1.7903,-1.7921,-1.7921,-1.7908,-1.7917,-1.7912,-1.7905,-1.7907,-1.7908,-1.7909,-1.7911,-1.7912,-1.7914,-1.7896,-1.7878,-1.7917,-1.7888,-1.7911,-1.7911,-1.7921,-1.792,-1.7998,-1.7923,-1.7923,-1.7923,-1.7922,0,-1.7955,-1.7974,-1.7947,-1.7959,-1.7979,-1.7957,-1.7977,-1.7969,-1.7963,-1.7973,-1.7947,-1.7957,-1.7933,-1.7939,-1.7925,-1.7943,-1.7944,-1.7937,-1.7933,-1.7939,-1.794,-1.7941,-1.7937,-1.7924,-1.7924,-1.7924,-1.7923,0,-1.8023,-1.8005,-1.8024,-1.801,-1.8006,-1.8022,-1.801,-1.802,-1.8008,-1.802,-1.8022,-1.8003,-1.801,-1.7992,-1.7996,-1.7986,-1.8012,-1.8003,-1.8013,-1.8011,-1.8034,-1.8032,-1.8115,-1.8124,-1.8044,-1.8044,-1.8045,0,-1.8062,-1.8076,-1.8063,-1.8067,-1.8063,-1.8071,-1.8073,-1.8051,-1.8054,-1.8048,-1.8059,-1.8063,-1.8065,-1.8077,-1.8064,-1.8067,-1.8057,-1.8086,-1.8058,-1.8063,-1.8057,-1.8057,-1.8058,-1.8092,-1.8093,-1.8094,-1.8094,0,-1.8134,-1.8124,-1.8128,-1.8129,-1.8132,-1.8132,-1.813,-1.8135,-1.8111,-1.8116,-1.8122,-1.8124,-1.8127,-1.8132,-1.8131,-1.8126,-1.8106,-1.8103,-1.8109,-1.8115,-1.8121,-1.8117,-1.8029,-1.8102,-1.8101,-1.81,-1.81,-1.81,-1.8188,-1.8199,-1.8191,-1.8196,-1.8192,-1.8191,-1.8199,-1.8188,-1.8192,-1.8193,-1.818,-1.8189,-1.8182,-1.818,-1.8176,-1.8183,-1.8169,-1.8177,-1.8179,-1.8182,-1.8185,-1.812,-1.8183,-1.8182,-1.8182,-1.8182,-1.8182,0,-1.8258,-1.8251,-1.8256,-1.8254,-1.8257,-1.8238,-1.8235,-1.8239,-1.8247,-1.8242,-1.8245,-1.8251,-1.8255,-1.8242,-1.8244,-1.8252,-1.8243,-1.8253,-1.8252,-1.8251,-1.8197,-1.8192,-1.826,-1.826,-1.826,-1.826,-1.826,-1.826,-1.8295,-1.8312,-1.8301,-1.8316,-1.8309,-1.8317,-1.8316,-1.8315,-1.8311,-1.8319,-1.8322,-1.8313,-1.8305,-1.8306,-1.8309,-1.8305,-1.8307,-1.832,-1.8313,-1.8263,-1.8255,-1.8248,-1.8243,-1.8321,-1.8321,-1.8367,-1.8367,-1.8368]}]]